time_stamp(utc),avg(mph),gust(mph),direction(deg),12m_air_temp(f),sonic_u(cm/s),sonic_v(cm/s),sonic_w(cm/s),pressure,2m_air_temp(f),pyranometer(W/m^2)
"2018-04-10 00:02:07+00",6.7,7.7,,39.6,-276,-233,-76,1020.51,39.6,0
"2018-04-10 00:07:07+00",5.2,6.2,,39.6,-199,-150,-32,1020.46,39.7,0
"2018-04-10 00:12:07+00",6.2,7.2,,39.6,-246,-127,-45,1020.35,39.7,0
"2018-04-10 00:17:07+00",6.0,7.0,,39.6,-259,-185,-63,1020.37,39.8,0
"2018-04-10 00:22:07+00",6.0,7.0,,39.7,-202,-194,-37,1020.35,39.8,0
"2018-04-10 00:27:07+00",7.2,8.2,,39.6,-225,-260,-64,1020.35,39.7,0
"2018-04-10 00:32:07+00",6.4,7.4,,39.7,-208,-219,-43,1020.4,39.8,0
"2018-04-10 00:37:07+00",7.2,8.2,,39.7,-184,-246,-55,1020.47,39.8,0
"2018-04-10 00:42:07+00",7.5,8.5,,39.7,-133,-260,-62,1020.47,39.8,0
"2018-04-10 00:47:07+00",6.9,7.9,,39.7,-120,-241,-48,1020.52,39.7,0
"2018-04-10 00:52:07+00",8.7,9.7,,39.7,-94,-326,-57,1020.69,39.7,0
"2018-04-10 00:57:07+00",8.3,10.3,,39.7,-83,-314,-63,1020.73,39.6,0
"2018-04-10 01:02:07+00",8.1,10.1,,39.7,-118,-296,-59,1020.87,39.6,0
"2018-04-10 01:07:07+00",6.5,8.5,,39.7,-61,-249,-54,1020.9,39.7,0
"2018-04-10 01:12:07+00",8.3,10.3,,39.8,-104,-309,-64,1020.84,39.7,0
"2018-04-10 01:17:07+00",5.8,8.8,,39.9,-78,-210,-30,1020.87,39.8,0
"2018-04-10 01:22:07+00",6.1,7.1,,40,-40,-239,-42,1020.89,39.9,0
"2018-04-10 01:27:07+00",8.4,9.4,,40,-108,-314,-62,1020.89,40,0
"2018-04-10 01:32:07+00",6.2,9.2,,40.1,-42,-244,-31,1020.97,40,0
"2018-04-10 01:37:07+00",7.9,9.9,,40.1,-50,-311,-58,1020.89,40,0
"2018-04-10 01:42:07+00",7.1,10.1,,40.2,-60,-273,-38,1020.96,40.1,0
"2018-04-10 01:47:07+00",8.8,10.8,,40.3,-104,-339,-52,1020.97,40.2,0
"2018-04-10 01:52:07+00",7.8,8.8,,40.3,-94,-299,-54,1021.01,40.2,0
"2018-04-10 01:57:07+00",6.1,7.1,,40.3,-68,-233,-42,1020.99,40.2,0
"2018-04-10 02:02:07+00",7.2,9.2,,40.4,-106,-266,-51,1021.01,40.2,0
"2018-04-10 02:07:07+00",7.7,8.7,,40.4,-108,-288,-55,1021.07,40.3,0
"2018-04-10 02:12:07+00",7.0,9.0,,40.4,-83,-263,-42,1021.01,40.3,0
"2018-04-10 02:17:07+00",8.3,10.3,,40.5,-114,-312,-63,1021,40.3,0
"2018-04-10 02:22:07+00",6.6,7.6,,40.5,-47,-252,-47,1020.88,40.4,0
"2018-04-10 02:27:07+00",5.8,7.8,,40.5,-64,-212,-34,1020.86,40.4,0
"2018-04-10 02:32:07+00",8.6,10.6,,40.5,-93,-330,-63,1020.77,40.4,0
"2018-04-10 02:37:07+00",6.5,7.5,,40.5,-96,-243,-46,1020.65,40.4,0
"2018-04-10 02:42:07+00",6.6,7.6,,40.5,-61,-248,-54,1020.7,40.4,0
"2018-04-10 02:47:07+00",5.5,7.5,,40.6,-69,-198,-40,1020.64,40.5,0
"2018-04-10 02:52:07+00",8.3,10.3,,40.7,-82,-316,-72,1020.61,40.5,0
"2018-04-10 02:57:07+00",7.9,9.9,,40.7,-12,-302,-54,1020.46,40.5,0
"2018-04-10 03:02:07+00",6.7,8.7,,40.6,-17,-261,-43,1020.43,40.5,0
"2018-04-10 03:07:07+00",7.8,9.8,,40.6,-34,-299,-61,1020.33,40.5,0
"2018-04-10 03:12:07+00",7.8,10.8,,40.7,-73,-301,-55,1020.32,40.5,0
"2018-04-10 03:17:07+00",7.5,9.5,,40.7,-78,-282,-63,1020.26,40.6,0
"2018-04-10 03:22:07+00",7.8,9.8,,40.8,-77,-293,-63,1020.32,40.6,0
"2018-04-10 03:27:07+00",5.9,6.9,,40.8,-53,-217,-46,1020.28,40.6,0
"2018-04-10 03:32:07+00",5.9,6.9,,40.8,-47,-219,-34,1020.33,40.6,0
"2018-04-10 03:37:07+00",9.4,10.4,,40.8,-125,-357,-76,1020.28,40.7,0
"2018-04-10 03:42:07+00",5.2,7.2,,40.8,-31,-191,-36,1020.26,40.7,0
"2018-04-10 03:47:07+00",6.4,8.4,,40.8,-77,-232,-41,1020.28,40.7,0
"2018-04-10 03:52:07+00",6.7,7.7,,40.9,-58,-253,-65,1020.16,40.7,0
"2018-04-10 03:57:07+00",7.3,8.3,,40.8,-73,-273,-54,1020.07,40.7,0
"2018-04-10 04:02:07+00",5.5,7.5,,40.9,-62,-197,-27,1020.13,40.7,0
"2018-04-10 04:07:07+00",5.6,7.6,,40.9,-61,-205,-40,1020.11,40.8,0
"2018-04-10 04:12:07+00",6.5,7.5,,40.9,-95,-228,-50,1020.13,40.8,0
"2018-04-10 04:17:07+00",5.7,6.7,,41,-96,-193,-39,1020.15,40.8,0
"2018-04-10 04:22:07+00",5.8,7.8,,41,-104,-198,-41,1020.13,40.9,0
"2018-04-10 04:27:07+00",6.5,7.5,,41,-92,-228,-60,1020.15,40.9,0
"2018-04-10 04:32:07+00",7.6,9.6,,41,-121,-263,-74,1020.22,40.9,0
"2018-04-10 04:37:07+00",6.8,7.8,,41,-95,-239,-60,1020.28,40.9,0
"2018-04-10 04:42:07+00",5.1,7.1,,41.1,-59,-176,-33,1020.29,41,0
"2018-04-10 04:47:07+00",6.7,8.7,,41.1,-99,-233,-61,1020.32,41,0
"2018-04-10 04:52:07+00",6.1,7.1,,41.1,-134,-197,-56,1020.35,41,0
"2018-04-10 04:57:07+00",6.4,8.4,,41.1,-163,-219,-59,1020.4,40.9,0
"2018-04-10 05:02:07+00",6.5,7.5,,41.2,-156,-230,-61,1020.43,41,0
"2018-04-10 05:07:07+00",6.8,7.8,,41.1,-127,-230,-63,1020.35,40.9,0
"2018-04-10 05:12:07+00",5.3,6.3,,41.1,-102,-182,-42,1020.22,40.9,0
"2018-04-10 05:17:07+00",3.5,4.5,,41,-43,-123,-24,1020.16,40.8,0
"2018-04-10 05:22:07+00",4.6,5.6,,41,-92,-155,-38,1020.24,40.8,0
"2018-04-10 05:27:07+00",5.2,5.2,,41.1,-108,-177,-36,1020.23,40.8,0
"2018-04-10 05:32:07+00",4.8,4.8,,41.1,-26,-177,-39,1020.15,40.8,0
"2018-04-10 05:37:07+00",6.7,7.7,,41.1,-128,-223,-63,1020.13,40.8,0
"2018-04-10 05:42:07+00",5.2,6.2,,41,-135,-170,-36,1020.21,40.7,0
"2018-04-10 05:47:07+00",6.8,7.8,,40.9,-97,-246,-59,1020.19,40.6,0
"2018-04-10 05:52:07+00",5.2,6.2,,40.9,-206,-164,-42,1020.12,40.5,0
"2018-04-10 05:57:07+00",3.8,4.8,,40.7,-155,-74,-23,1020.1,40.4,0
"2018-04-10 06:02:07+00",4.8,5.8,,40.7,-126,-172,-30,1019.99,40.3,0
"2018-04-10 06:07:07+00",3.1,4.1,,40.6,-105,-109,-20,1019.94,40.2,0
"2018-04-10 06:12:07+00",3.5,3.5,,40.5,-153,-45,-23,1019.88,40.1,0
"2018-04-10 06:17:07+00",4.8,4.8,,40.3,-184,-94,-33,1019.83,40,0
"2018-04-10 06:22:07+00",5.0,6.0,,40.3,-214,-26,-28,1019.95,39.9,0
"2018-04-10 06:27:07+00",5.2,5.2,,40.3,-204,-82,-40,1020.02,39.8,0
"2018-04-10 06:32:07+00",3.8,3.8,,40.3,-146,-67,-29,1019.87,39.8,0
"2018-04-10 06:37:07+00",4.8,5.8,,40.2,-197,-58,6,1019.85,39.8,0
"2018-04-10 06:42:07+00",5.0,6.0,,40.2,-209,-34,14,1019.87,39.7,0
"2018-04-10 06:47:07+00",4.4,5.4,,40.1,-181,-31,9,1019.87,39.6,0
"2018-04-10 06:52:07+00",4.2,5.2,,40.2,-181,5,11,1019.8,39.6,0
"2018-04-10 06:57:07+00",4.5,5.5,,40.2,-188,51,16,1019.76,39.6,0
"2018-04-10 07:02:07+00",5.9,6.9,,40.2,-228,129,24,1019.7,39.6,0
"2018-04-10 07:07:07+00",8.6,9.6,,39.5,-96,363,15,1019.7,39.5,0
"2018-04-10 07:12:07+00",7.2,8.2,,38.9,-110,285,25,1019.8,39.2,0
"2018-04-10 07:17:07+00",7.2,8.2,,38.8,-141,282,22,1019.85,38.9,0
"2018-04-10 07:22:07+00",6.7,7.7,,38.7,-84,270,13,1019.97,38.8,0
"2018-04-10 07:27:07+00",6.4,7.4,,38.5,-114,251,7,1020.13,38.6,0
"2018-04-10 07:32:07+00",6.0,7.0,,38.3,-108,239,15,1020.02,38.4,0
"2018-04-10 07:37:07+00",6.2,7.2,,38.2,-108,252,15,1020.09,38.2,0
"2018-04-10 07:42:07+00",5.9,6.9,,38,-98,226,16,1020.14,38.1,0
"2018-04-10 07:47:07+00",6.9,7.9,,37.8,-86,283,17,1020.06,37.9,0
"2018-04-10 07:52:07+00",6.5,7.5,,37.8,-73,266,27,1019.94,37.8,0
"2018-04-10 07:57:07+00",6.2,7.2,,37.6,-29,260,22,1019.91,37.6,0
"2018-04-10 08:02:07+00",6.5,7.5,,37.4,-63,271,8,1020.11,37.5,0
"2018-04-10 08:07:07+00",7.1,7.1,,37.4,-117,280,11,1020.2,37.3,0
"2018-04-10 08:12:07+00",6.1,7.1,,37.4,-101,248,20,1020.13,37.3,0
"2018-04-10 08:17:07+00",6.2,6.2,,37.4,-48,265,2,1020.08,37.3,0
"2018-04-10 08:22:07+00",5.5,6.5,,37.4,-38,228,12,1019.98,37.2,0
"2018-04-10 08:27:07+00",5.2,6.2,,37.4,-30,215,3,1019.98,37.2,0
"2018-04-10 08:32:07+00",4.2,5.2,,37.4,-33,169,2,1020.07,37.2,0
"2018-04-10 08:37:07+00",3.9,4.9,,37.4,-64,147,17,1020.2,37.2,0
"2018-04-10 08:42:07+00",4.8,4.8,,37.5,-59,190,3,1020.13,37.2,0
"2018-04-10 08:47:07+00",4.7,4.7,,37.5,-41,191,4,1019.97,37.3,0
"2018-04-10 08:52:07+00",4.0,4.0,,37.5,-5,162,5,1019.9,37.3,0
"2018-04-10 08:57:07+00",3.9,3.9,,37.5,-8,158,2,1019.91,37.3,0
"2018-04-10 09:02:07+00",3.5,3.5,,37.5,-2,136,4,1019.78,37.3,0
"2018-04-10 09:07:07+00",3.6,4.6,,37.6,-48,136,10,1019.83,37.3,0
"2018-04-10 09:12:07+00",4.7,4.7,,37.6,-56,186,6,1019.69,37.3,0
"2018-04-10 09:17:07+00",4.3,5.3,,37.7,4,175,6,1019.53,37.4,0
"2018-04-10 09:22:07+00",3.7,4.7,,37.6,7,148,0,1019.55,37.4,0
"2018-04-10 09:27:07+00",4.7,4.7,,37.6,40,187,-2,1019.32,37.4,0
"2018-04-10 09:32:07+00",2.4,2.4,,37.7,-23,89,11,1019.56,37.4,0
"2018-04-10 09:37:07+00",2.5,2.5,,37.7,-18,91,2,1019.51,37.4,0
"2018-04-10 09:42:07+00",2.1,2.1,,37.8,19,73,-3,1019.55,37.5,0
"2018-04-10 09:47:07+00",2.9,2.9,,37.8,22,106,7,1019.5,37.5,0
"2018-04-10 09:52:07+00",2.3,3.3,,37.8,4,79,-1,1019.53,37.5,0
"2018-04-10 09:57:07+00",2.1,2.1,,37.9,18,71,-5,1019.4,37.5,0
"2018-04-10 10:02:07+00",2.2,2.2,,37.9,-31,75,4,1019.45,37.6,0
"2018-04-10 10:07:07+00",1.7,1.7,,38,3,55,2,1019.5,37.6,0
"2018-04-10 10:12:07+00",1.5,1.5,,38,-6,51,0,1019.58,37.6,0
"2018-04-10 10:17:07+00",0.0,0.0,,38.1,-8,35,0,1019.64,37.7,0
"2018-04-10 10:22:07+00",1.8,2.8,,38.1,0,66,1,1019.52,37.7,0
"2018-04-10 10:27:07+00",2.4,2.4,,38.2,-23,91,5,1019.67,37.8,0
"2018-04-10 10:32:07+00",2.3,3.3,,38.3,-43,73,2,1019.71,37.8,0
"2018-04-10 10:37:07+00",4.0,5.0,,38.4,-73,150,9,1019.72,37.9,0
"2018-04-10 10:42:07+00",4.5,5.5,,38.4,-69,173,6,1019.67,38,0
"2018-04-10 10:47:07+00",5.4,6.4,,38.5,-112,199,16,1019.54,38.1,0
"2018-04-10 10:52:07+00",3.4,4.4,,38.5,-47,124,21,1019.66,38.2,0
"2018-04-10 10:57:07+00",0.0,0.0,,38.5,12,-30,4,1020.04,38.2,0
"2018-04-10 11:02:07+00",1.8,2.8,,38.5,9,-67,1,1020.21,38.3,0
"2018-04-10 11:07:07+00",1.2,1.2,,38.5,50,5,-2,1020.13,38.4,0
"2018-04-10 11:12:07+00",1.7,1.7,,38.6,40,44,7,1020.07,38.4,0
"2018-04-10 11:17:07+00",1.7,1.7,,38.6,-2,60,2,1020.18,38.4,0
"2018-04-10 11:22:07+00",1.8,2.8,,38.6,-30,59,5,1020.27,38.4,0
"2018-04-10 11:27:07+00",2.2,2.2,,38.6,-65,52,-2,1020.18,38.5,0
"2018-04-10 11:32:07+00",2.6,2.6,,38.7,-90,54,6,1020.28,38.5,0
"2018-04-10 11:37:07+00",3.0,4.0,,38.9,-102,61,2,1020.29,38.7,0
"2018-04-10 11:42:07+00",4.7,4.7,,39.2,-187,80,16,1020.22,38.9,0
"2018-04-10 11:47:07+00",4.5,5.5,,39.3,-181,66,23,1020.36,39,0
"2018-04-10 11:52:07+00",8.2,9.2,,39.4,-359,83,26,1020.4,39.2,0
"2018-04-10 11:57:07+00",8.1,9.1,,39.4,-322,149,28,1020.44,39.3,0
"2018-04-10 12:02:07+00",7.7,8.7,,39.3,-319,105,8,1020.54,39.4,0
"2018-04-10 12:07:07+00",8.7,9.7,,39.3,-365,117,23,1020.5,39.4,0
"2018-04-10 12:12:07+00",8.6,9.6,,39.3,-360,123,27,1020.6,39.5,0
"2018-04-10 12:17:07+00",9.3,10.3,,39.2,-374,176,21,1020.62,39.5,3.1
"2018-04-10 12:22:07+00",8.7,9.7,,39.3,-338,171,44,1020.68,39.6,3.7
"2018-04-10 12:27:07+00",9.6,10.6,,39.2,-390,175,21,1020.65,39.6,8.4
"2018-04-10 12:32:07+00",10.0,11.0,,39.2,-386,227,23,1020.72,39.6,33.3
"2018-04-10 12:37:07+00",10.7,10.7,,39.3,-419,219,26,1020.69,39.7,27.2
"2018-04-10 12:42:07+00",10.9,12.9,,39.4,-426,220,26,1020.74,39.7,15.5
"2018-04-10 12:47:07+00",10.8,12.8,,39.4,-399,268,55,1020.86,39.8,28
"2018-04-10 12:52:07+00",12.0,13.0,,39.4,-406,351,28,1020.71,39.9,44.6
"2018-04-10 12:57:07+00",10.1,11.1,,39.4,-376,281,72,1020.75,39.9,65.7
"2018-04-10 13:02:07+00",10.0,11.0,,39.4,-357,272,47,1020.69,40.1,100.7
"2018-04-10 13:07:07+00",8.8,9.8,,39.5,-314,238,42,1020.65,40.4,215.2
"2018-04-10 13:12:07+00",9.0,10.0,,39.7,-342,209,29,1020.63,40.7,186.9
"2018-04-10 13:17:07+00",9.7,10.7,,39.8,-346,259,32,1020.64,41.1,267.9
"2018-04-10 13:22:07+00",10.5,11.5,,40,-278,365,14,1020.58,41.5,310.6
"2018-04-10 13:27:07+00",10.4,11.4,,40.1,-342,321,26,1020.61,42,328
"2018-04-10 13:32:07+00",9.2,11.2,,40.3,-293,289,53,1020.63,42.3,268.4
"2018-04-10 13:37:07+00",10.1,12.1,,40.4,-315,316,34,1020.75,42.3,96.3
"2018-04-10 13:42:07+00",8.9,9.9,,40.3,-272,273,42,1020.72,42,151.5
"2018-04-10 13:47:07+00",8.7,9.7,,40.5,-289,264,47,1020.76,42.1,112.5
"2018-04-10 13:52:07+00",12.1,14.1,,40.8,-392,374,26,1020.73,42.6,311
"2018-04-10 13:57:07+00",10.0,12.0,,41.2,-315,314,35,1020.75,43.2,331.5
"2018-04-10 14:02:07+00",11.5,13.5,,41.2,-373,358,37,1020.81,43.3,162.8
"2018-04-10 14:07:07+00",10.9,12.9,,41.2,-442,204,16,1020.81,43.6,193.6
"2018-04-10 14:12:07+00",7.9,8.9,,41.2,-302,162,20,1020.76,43.5,300.1
"2018-04-10 14:17:07+00",9.4,10.4,,41.4,-341,243,20,1020.8,43.7,187
"2018-04-10 14:22:07+00",9.6,11.6,,41.8,-350,231,31,1020.79,43.8,191.7
"2018-04-10 14:27:07+00",13.6,14.6,,41.9,-453,392,34,1020.79,43.9,161.3
"2018-04-10 14:32:07+00",11.6,13.6,,42.3,-467,225,53,1020.87,44.1,281.8
"2018-04-10 14:37:07+00",11.6,14.6,,42.2,-434,292,44,1020.91,44.3,384.5
"2018-04-10 14:42:07+00",10.5,11.5,,41.8,-445,153,31,1020.81,44.1,447.3
"2018-04-10 14:47:07+00",8.7,10.7,,42.4,-332,193,87,1020.78,44.8,508.7
"2018-04-10 14:52:07+00",13.8,15.8,,42.3,-555,267,11,1020.87,44.9,136.6
"2018-04-10 14:57:07+00",15.2,18.2,,42.4,-604,322,53,1020.94,44.6,107.2
"2018-04-10 15:02:07+00",15.0,16.0,,42.1,-544,396,26,1020.94,43.7,117.3
"2018-04-10 15:07:07+00",13.5,14.5,,42.4,-462,388,36,1020.88,44.1,507.8
"2018-04-10 15:12:07+00",10.2,12.2,,42.7,-315,314,52,1020.95,44.8,305.9
"2018-04-10 15:17:07+00",9.9,10.9,,42.6,-349,274,56,1020.71,45,510.9
"2018-04-10 15:22:07+00",9.3,11.3,,42.8,-381,153,7,1020.81,45.6,566.6
"2018-04-10 15:27:07+00",15.2,17.2,,43,-610,303,58,1020.67,46,339.5
"2018-04-10 15:32:07+00",12.9,14.9,,42.9,-432,366,41,1020.8,45.7,524.9
"2018-04-10 15:37:07+00",10.4,13.4,,43.2,-390,254,24,1020.72,45.9,569.1
"2018-04-10 15:42:07+00",10.7,13.7,,43.2,-221,411,19,1020.7,45.6,401.6
"2018-04-10 15:47:07+00",15.1,18.1,,43.5,-522,429,41,1020.63,46.1,592.9
"2018-04-10 15:52:07+00",16.4,18.4,,43.4,-493,541,41,1020.7,46.3,537.5
"2018-04-10 15:57:07+00",14.0,19.0,,43.3,-473,405,38,1020.61,46.1,533.4
"2018-04-10 16:02:07+00",12.4,15.4,,43.5,-432,356,39,1020.51,46.2,531.5
"2018-04-10 16:07:07+00",14.0,16.0,,44.2,-489,381,84,1020.63,46.6,600.2
"2018-04-10 16:12:07+00",11.1,12.1,,43.6,-301,374,2,1020.59,45.9,563
"2018-04-10 16:17:07+00",10.0,12.0,,44,-242,329,13,1020.57,46.4,182.4
"2018-04-10 16:22:07+00",12.5,14.5,,43.8,-414,377,29,1020.57,46.2,400.1
"2018-04-10 16:27:07+00",13.5,15.5,,44.7,-486,361,63,1020.42,46.7,495.5
"2018-04-10 16:32:07+00",11.1,14.1,,44.4,-313,359,17,1020.39,46.8,515.9
"2018-04-10 16:37:07+00",16.5,18.5,,44.9,-375,634,31,1020.27,47.4,585.4
"2018-04-10 16:42:07+00",12.4,15.4,,45.1,-266,463,17,1020.22,47.6,506.4
"2018-04-10 16:47:07+00",10.2,12.2,,45.1,-331,296,21,1020.21,48,616.9
"2018-04-10 16:52:07+00",14.0,15.0,,45.4,-277,538,27,1020.07,47.9,315.8
"2018-04-10 16:57:07+00",11.6,14.6,,45.4,-312,406,44,1020.1,47.9,615.2
"2018-04-10 17:02:07+00",12.9,13.9,,45.1,-403,411,28,1019.97,47.4,155
"2018-04-10 17:07:07+00",12.7,15.7,,45.6,-340,440,56,1019.89,47.2,159.1
"2018-04-10 17:12:07+00",15.9,21.9,,45.7,-407,571,16,1019.83,47.2,241.3
"2018-04-10 17:17:07+00",13.7,16.7,,45.7,-467,395,29,1019.72,47.6,556.5
"2018-04-10 17:22:07+00",14.7,18.7,,46.3,-290,548,85,1019.69,48.4,440.4
"2018-04-10 17:27:07+00",11.3,13.3,,46.3,-192,457,17,1019.73,49.2,186.7
"2018-04-10 17:32:07+00",10.8,12.8,,46.5,-320,365,28,1019.73,48.7,333.2
"2018-04-10 17:37:07+00",15.5,19.5,,46.7,-365,585,38,1019.66,49.2,316.4
"2018-04-10 17:42:07+00",19.6,22.6,,46.5,-470,727,39,1019.59,48.6,118
"2018-04-10 17:47:07+00",11.8,13.8,,46.4,-380,365,46,1019.63,48.6,540.8
"2018-04-10 17:52:07+00",7.6,9.6,,46.5,-144,285,10,1019.55,48.7,158.2
"2018-04-10 17:57:07+00",15.5,16.5,,46.6,-439,526,27,1019.6,48.7,153.3
"2018-04-10 18:02:07+00",14.5,15.5,,46.6,-494,422,52,1019.59,48.4,243.3
"2018-04-10 18:07:07+00",7.2,10.2,,46.4,-178,257,14,1019.6,48.3,267
"2018-04-10 18:12:07+00",15.7,17.7,,46.8,-477,510,71,1019.51,48.6,170.2
"2018-04-10 18:17:07+00",11.4,12.4,,46.7,-321,382,77,1019.45,48.5,174.7
"2018-04-10 18:22:07+00",12.2,14.2,,46.7,-307,443,50,1019.42,48.3,110.3
"2018-04-10 18:27:07+00",11.3,14.3,,46.8,-310,398,39,1019.42,48.2,151
"2018-04-10 18:32:07+00",12.3,15.3,,47.4,-355,415,50,1019.29,49,465.1
"2018-04-10 18:37:07+00",14.8,16.8,,47.2,-335,550,45,1019.24,49.3,110.7
"2018-04-10 18:42:07+00",14.5,16.5,,46.6,-409,495,29,1019.32,48.6,161.8
"2018-04-10 18:47:07+00",10.0,13.0,,46.7,-331,296,59,1019.32,48.1,171.7
"2018-04-10 18:52:07+00",10.4,12.4,,47.2,-293,350,32,1019.19,48.8,564.1
"2018-04-10 18:57:07+00",12.9,15.9,,47.8,-235,512,31,1019.11,49.6,203.2
"2018-04-10 19:02:07+00",16.8,19.8,,47.6,-539,511,40,1019.07,50.2,251.7
"2018-04-10 19:07:07+00",16.4,18.4,,47.3,-289,661,44,1019.16,49.4,120.3
"2018-04-10 19:12:07+00",11.8,12.8,,47.2,-190,487,16,1019.11,49,86.9
"2018-04-10 19:17:07+00",13.4,15.4,,47.4,-364,469,41,1019.08,48.9,135.1
"2018-04-10 19:22:07+00",13.7,15.7,,47.3,-490,367,27,1019.04,48.9,262.2
"2018-04-10 19:27:07+00",16.5,18.5,,47.7,-626,395,37,1019.03,49.6,398.6
"2018-04-10 19:32:07+00",14.6,16.6,,48,-245,599,37,1019.03,50.3,338.2
"2018-04-10 19:37:07+00",13.3,15.3,,47.7,-317,494,46,1018.97,49.8,133.8
"2018-04-10 19:42:07+00",11.5,13.5,,47.6,-252,438,19,1018.99,49.3,305.2
"2018-04-10 19:47:07+00",16.4,18.4,,48.1,-565,460,28,1018.83,50.2,412.1
"2018-04-10 19:52:07+00",16.4,17.4,,47.9,-453,564,43,1018.76,50.3,292.3
"2018-04-10 19:57:07+00",15.5,18.5,,48.3,-484,509,50,1018.74,50.5,402.6
"2018-04-10 20:02:07+00",13.9,14.9,,48.3,-423,445,34,1018.85,50.9,357.2
"2018-04-10 20:07:07+00",13.9,15.9,,48.1,-398,468,29,1018.8,50.6,122.3
"2018-04-10 20:12:07+00",13.2,16.2,,48.1,-411,409,15,1018.72,50.3,274.1
"2018-04-10 20:17:07+00",14.4,16.4,,47.5,-423,483,28,1018.69,49.5,74.6
"2018-04-10 20:22:07+00",10.6,12.6,,47.7,-369,295,42,1018.65,49.3,77.5
"2018-04-10 20:27:07+00",10.9,11.9,,47.7,-397,265,4,1018.63,48.9,87.1
"2018-04-10 20:32:07+00",12.5,13.5,,48.1,-381,403,34,1018.59,49.5,306.3
"2018-04-10 20:37:07+00",11.0,13.0,,48.3,-366,318,30,1018.56,50.2,291.4
"2018-04-10 20:42:07+00",11.5,13.5,,48.4,-346,367,22,1018.52,50.5,204.9
"2018-04-10 20:47:07+00",7.7,10.7,,48.3,-94,312,4,1018.41,50.3,95.3
"2018-04-10 20:52:07+00",11.6,12.6,,48.3,-365,365,35,1018.51,50.1,112.4
"2018-04-10 20:57:07+00",13.0,15.0,,48.3,-346,451,50,1018.55,49.7,104.4
"2018-04-10 21:02:07+00",11.6,13.6,,48.8,-410,342,31,1018.56,50.4,269.3
"2018-04-10 21:07:07+00",14.3,16.3,,49,-471,428,34,1018.6,50.9,265.3
"2018-04-10 21:12:07+00",10.4,12.4,,49.1,-370,293,54,1018.51,51.1,244.2
"2018-04-10 21:17:07+00",14.0,15.0,,49.1,-278,553,23,1018.66,51.4,230.9
"2018-04-10 21:22:07+00",11.9,13.9,,49.2,-300,434,52,1018.74,51.5,217.5
"2018-04-10 21:27:07+00",7.7,10.7,,48.9,26,296,54,1018.77,51.6,200.2
"2018-04-10 21:32:07+00",6.8,9.8,,45.7,267,93,24,1018.84,49.5,53.8
"2018-04-10 21:37:07+00",5.4,7.4,,44.7,150,-169,2,1018.83,47.7,40.8
"2018-04-10 21:42:07+00",6.8,8.8,,44.6,142,-217,21,1018.93,46.8,30.6
"2018-04-10 21:47:07+00",4.7,6.7,,44.9,35,-193,13,1018.91,46.1,131.2
"2018-04-10 21:52:07+00",8.1,9.1,,44.1,135,-315,9,1018.99,45.5,135.6
"2018-04-10 21:57:07+00",9.4,10.4,,43.9,135,-369,-5,1018.94,45.1,126.1
"2018-04-10 22:02:07+00",6.2,7.2,,44.1,159,-208,2,1018.98,45.1,111
"2018-04-10 22:07:07+00",10.6,12.6,,43.9,311,-330,23,1018.88,45.2,96.7
"2018-04-10 22:12:07+00",13.7,15.7,,43.7,444,-404,6,1018.93,45.1,92.1
"2018-04-10 22:17:07+00",11.6,14.6,,43.5,342,-358,43,1019.07,44.8,83.5
"2018-04-10 22:22:07+00",9.4,13.4,,43.6,280,-297,6,1019.17,44.9,66.4
"2018-04-10 22:27:07+00",12.4,13.4,,43.4,328,-421,-24,1019.09,44.5,54.3
"2018-04-10 22:32:07+00",10.7,11.7,,43.3,353,-301,-9,1019.18,44.2,38.4
"2018-04-10 22:37:07+00",9.2,10.2,,43.2,248,-311,2,1019.26,44,35.5
"2018-04-10 22:42:07+00",9.4,11.4,,43.1,340,-220,8,1019.3,44,25.9
"2018-04-10 22:47:07+00",9.3,10.3,,43,304,-258,-12,1019.33,43.9,20.8
"2018-04-10 22:52:07+00",9.2,11.2,,43,323,-231,-8,1019.23,43.8,14.9
"2018-04-10 22:57:07+00",8.9,9.9,,42.9,306,-237,22,1019.2,43.7,7.1
"2018-04-10 23:02:07+00",8.9,9.9,,42.8,305,-237,-3,1019.16,43.5,0.9
"2018-04-10 23:07:07+00",9.9,10.9,,42.7,284,-326,-4,1019.18,43.2,0
"2018-04-10 23:12:07+00",8.8,9.8,,42.6,254,-269,-3,1019.18,42.9,0
"2018-04-10 23:17:07+00",8.6,9.6,,42.6,210,-304,-9,1019.31,42.7,0
"2018-04-10 23:22:07+00",7.8,8.8,,42.5,148,-300,-6,1019.41,42.5,0
"2018-04-10 23:27:07+00",5.8,6.8,,42.4,93,-219,-3,1019.46,42.2,0
"2018-04-10 23:32:07+00",5.6,6.6,,42.5,100,-214,-7,1019.58,42,0
"2018-04-10 23:37:07+00",5.7,5.7,,42.4,107,-212,-5,1019.74,41.8,0
"2018-04-10 23:42:07+00",5.9,5.9,,42.3,108,-222,0,1019.77,41.5,0
"2018-04-10 23:47:07+00",4.5,4.5,,42.4,64,-174,-1,1019.78,41.3,0
"2018-04-10 23:52:07+00",4.8,4.8,,42.4,56,-190,-7,1019.79,41.1,0
"2018-04-10 23:57:07+00",3.9,3.9,,42.4,67,-142,-2,1019.72,41.1,0
